This demonstration page uses our WeatherBlox Daily Observations layout. Learn more.

Left ArrowRight Arrow

Hourly Observations for April 13, 2019

Temp ( °F °C ) Dew Point ( °F °C ) Humidity (%) Winds ( mph kmh ) Pressure ( in mb ) Visibility ( mi km ) Precip ( " mm )
12:53 am 00:53 Clear 63 17.2 61 16.1 93 93 Calm 30.02 1017 10 16 0.00 0.00
1:53 am 01:53 Clear 62 16.7 61 16.1 96 96 Calm 30.01 1016 10 16 0.00 0.00
2:53 am 02:53 Clear 60 15.6 60 15.6 100 100 Calm 29.98 1015 10 16 0.00 0.00
3:53 am 03:53 Clear 61 16.1 60 15.6 97 97 Calm 29.98 1015 10 16 0.00 0.00
4:53 am 04:53 Clear 59 15 59 15 100 100 Calm 29.98 1015 10 16 0.00 0.00
5:53 am 05:53 Mostly Clear 61 16.1 60 15.6 97 97 Calm 29.99 1016 10 16 0.00 0.03
6:53 am 06:53 Mostly Clear 60 15.6 60 15.6 100 100 Calm 30.00 1016 10 16 0.00 0.00
7:53 am 07:53 Sunny 60 15.6 60 15.6 100 100 Calm 30.00 1016 10 16 0.00 0.00
8:53 am 08:53 Mostly Sunny 64 17.8 61 16.1 90 90 Calm 30.02 1017 10 16 0.00 0.00
9:53 am 09:53 Mostly Sunny 68 20 61 16.1 78 78 E 5 7 30.03 1017 10 16 0.00 0.00
10:53 am 10:53 Partly Cloudy 71 21.7 65 18.3 81 81 E 6 9 30.03 1017 10 16 0.00 0.00
11:53 am 11:53 Mostly Sunny 73 22.8 66 18.9 79 79 E 5 7 30.03 1017 10 16 0.00 0.00
12:05 pm 12:05 Mostly Cloudy 73 22.8 66 18.9 79 79 SE 7 11 30.01 1016 10 16 0.00 0.00
12:39 pm 12:39 Partly Cloudy 73 22.8 66 18.9 79 79 E 7 11 30.00 1016 10 16 0.00 0.00
12:53 pm 12:53 Sunny 73 22.8 66 18.9 79 79 VRB 3 6 30.00 1016 10 16 0.00 0.00
1:53 pm 13:53 Sunny 75 23.9 61 16.1 62 62 SSE 13 20 29.96 1015 10 16 0.00 0.00
2:53 pm 14:53 Sunny 77 25 60 15.6 56 56 S 9 15 29.94 1014 10 16 0.00 0.00
3:53 pm 15:53 Sunny 79 26.1 60 15.6 52 52 S 8 13 29.91 1013 10 16 0.00 0.00
4:53 pm 16:53 Sunny 81 27.2 59 15 47 47 S 7 11 29.89 1012 10 16 0.00 0.00
5:53 pm 17:53 Mostly Sunny 82 27.8 57 13.9 42 42 S 8 13 29.86 1011 10 16 0.00 0.00
6:53 pm 18:53 Partly Cloudy 82 27.8 57 13.9 42 42 VRB 6 9 29.85 1011 10 16 0.00 0.00
7:53 pm 19:53 Partly Cloudy 78 25.6 57 13.9 48 48 ESE 5 7 29.85 1011 10 16 0.00 0.00
8:53 pm 20:53 Clear 77 25 59 15 54 54 ESE 5 7 29.85 1011 10 16 0.00 0.00
9:53 pm 21:53 Partly Cloudy 76 24.4 60 15.6 58 58 ESE 9 15 29.85 1011 10 16 0.00 0.00
10:53 pm 22:53 Mostly Clear 75 23.9 63 17.2 66 66 SE 14 22 29.82 1010 10 16 0.00 0.00
11:53 pm 23:53 Mostly Clear 75 23.9 66 18.9 74 74 SE 14 22 29.83 1010 10 16 0.00 0.00

Powered by AerisWeather